When you browse on this site, cookies collect data to enhance your experience and personalize the content and advertising you see.
Visit our Privacy Policy to learn more. By continuing to use the site, you agree to this use of cookies and data.
  • In Hungary
  • List of Countries
  • For 7 days
  • Water Temperature
  • Weather Map
  • News
  • Weather Widgets
  • user-avatar
    Login

    Hourly Weather Gunuh

    Today, 24 February, Monday

    Time Temperature Precipitation Wind Pressure Humidity
    00:00 -5°C° 0 mm 3 mps 609 mmHg 80%
    01:00 -5°C° 0 mm 3 mps 608 mmHg 80%
    02:00 -6°C° 0 mm 3 mps 608 mmHg 80%
    03:00 -7°C° 0 mm 4 mps 607 mmHg 80%
    04:00 -7°C° 0 mm 4 mps 607 mmHg 80%
    05:00 -7°C° 0 mm 4 mps 607 mmHg 80%
    06:00 -7°C° 0 mm 4 mps 607 mmHg 80%
    07:00 -5°C° 0 mm 4 mps 607 mmHg 78%
    08:00 -3°C° 0 mm 4 mps 607 mmHg 77%
    09:00 -2°C° 0 mm 4 mps 608 mmHg 75%
    10:00 -1°C° 0 mm 4 mps 607 mmHg 73%
    11:00 0°C° 0 mm 4 mps 607 mmHg 70%
    12:00 0°C° 0 mm 4 mps 606 mmHg 68%
    13:00 +1°C° 0 mm 5 mps 606 mmHg 67%
    14:00 +1°C° 0 mm 5 mps 605 mmHg 66%
    15:00 +1°C° 0 mm 5 mps 604 mmHg 66%
    16:00 -1°C° 0 mm 5 mps 603 mmHg 68%
    17:00 -2°C° 0 mm 5 mps 602 mmHg 70%
    18:00 -5°C° 0 mm 5 mps 601 mmHg 72%
    19:00 -5°C° 0 mm 5 mps 601 mmHg 73%
    20:00 -5°C° 0 mm 5 mps 601 mmHg 73%
    21:00 -5°C° 0 mm 6 mps 600 mmHg 73%
    22:00 -5°C° 0 mm 6 mps 600 mmHg 74%
    23:00 -5°C° 0 mm 6 mps 599 mmHg 74%

    Tomorrow, 25 February, Tuesday

    Time Temperature Precipitation Wind Pressure Humidity
    00:00 -5°C° 0 mm 6 mps 599 mmHg 75%
    01:00 -5°C° 0 mm 6 mps 598 mmHg 75%
    02:00 -5°C° 0 mm 6 mps 598 mmHg 75%
    03:00 -5°C° 0 mm 5 mps 598 mmHg 75%
    04:00 -6°C° 0 mm 5 mps 598 mmHg 75%
    05:00 -6°C° 0 mm 5 mps 599 mmHg 75%
    06:00 -5°C° 0 mm 4 mps 599 mmHg 75%
    07:00 -4°C° 0 mm 4 mps 600 mmHg 75%
    08:00 -3°C° 0 mm 4 mps 601 mmHg 75%
    09:00 -1°C° 0 mm 3 mps 602 mmHg 74%
    10:00 -1°C° 0 mm 3 mps 602 mmHg 74%
    11:00 -1°C° 0 mm 3 mps 603 mmHg 74%
    12:00 0°C° 0 mm 3 mps 603 mmHg 74%
    13:00 -1°C° 0.4 mm 3 mps 603 mmHg 79%
    14:00 -2°C° 0.4 mm 3 mps 603 mmHg 83%
    15:00 -4°C° 0.4 mm 3 mps 603 mmHg 88%
    16:00 -4°C° 0.9 mm 2 mps 603 mmHg 90%
    17:00 -5°C° 0.9 mm 2 mps 603 mmHg 92%
    18:00 -6°C° 0.9 mm 2 mps 603 mmHg 95%
    19:00 -6°C° 0.6 mm 2 mps 603 mmHg 95%
    20:00 -7°C° 0.6 mm 2 mps 604 mmHg 95%
    21:00 -6°C° 0.6 mm 1 mps 604 mmHg 95%
    22:00 -8°C° 0.1 mm 2 mps 604 mmHg 95%
    23:00 -9°C° 0.1 mm 2 mps 604 mmHg 94%

    Day after tomorrow, 26 February, Wednesday

    Time Temperature Precipitation Wind Pressure Humidity
    00:00 -10°C° 0.1 mm 2 mps 604 mmHg 93%
    01:00 -12°C° 0 mm 2 mps 604 mmHg 89%
    02:00 -12°C° 0 mm 2 mps 604 mmHg 84%
    03:00 -13°C° 0 mm 2 mps 604 mmHg 79%
    04:00 -12°C° 0 mm 2 mps 604 mmHg 73%
    05:00 -10°C° 0 mm 1 mps 604 mmHg 67%
    06:00 -10°C° 0 mm 1 mps 605 mmHg 61%
    07:00 -9°C° 0 mm 1 mps 606 mmHg 59%
    08:00 -7°C° 0 mm 1 mps 607 mmHg 56%
    09:00 -4°C° 0 mm 1 mps 608 mmHg 54%
    10:00 -3°C° 0 mm 1 mps 608 mmHg 57%
    11:00 -2°C° 0 mm 1 mps 609 mmHg 59%
    12:00 -3°C° 0 mm 2 mps 609 mmHg 61%
    13:00 -2°C° 0 mm 2 mps 609 mmHg 64%
    14:00 -2°C° 0 mm 2 mps 609 mmHg 67%
    15:00 -2°C° 0 mm 2 mps 609 mmHg 70%
    16:00 -4°C° 0 mm 3 mps 608 mmHg 68%
    17:00 -5°C° 0 mm 3 mps 607 mmHg 67%
    18:00 -8°C° 0 mm 4 mps 607 mmHg 66%
    19:00 -8°C° 0 mm 4 mps 607 mmHg 62%
    20:00 -8°C° 0 mm 4 mps 607 mmHg 57%
    21:00 -8°C° 0 mm 4 mps 607 mmHg 52%
    22:00 -7°C° 0 mm 4 mps 607 mmHg 49%
    23:00 -7°C° 0 mm 4 mps 607 mmHg 47%

    27 February, Thursday

    Time Temperature Precipitation Wind Pressure Humidity
    00:00 -7°C° 0 mm 4 mps 606 mmHg 44%
    01:00 -5°C° 0 mm 4 mps 606 mmHg 44%
    02:00 -5°C° 0 mm 4 mps 606 mmHg 44%
    03:00 -4°C° 0 mm 4 mps 606 mmHg 44%
    04:00 -4°C° 0 mm 4 mps 606 mmHg 44%
    05:00 -3°C° 0 mm 4 mps 607 mmHg 44%
    06:00 -3°C° 0 mm 4 mps 607 mmHg 43%
    07:00 -1°C° 0 mm 4 mps 607 mmHg 47%
    08:00 0°C° 0 mm 4 mps 608 mmHg 51%
    09:00 +2°C° 0 mm 3 mps 608 mmHg 54%
    10:00 +4°C° 0 mm 3 mps 609 mmHg 60%
    11:00 +5°C° 0 mm 3 mps 609 mmHg 65%
    12:00 +7°C° 0 mm 3 mps 609 mmHg 70%
    13:00 +7°C° 0 mm 3 mps 609 mmHg 67%
    14:00 +7°C° 0 mm 3 mps 609 mmHg 65%
    15:00 +8°C° 0 mm 3 mps 609 mmHg 62%
    16:00 +5°C° 0 mm 4 mps 608 mmHg 57%
    17:00 +3°C° 0 mm 4 mps 607 mmHg 52%
    18:00 +1°C° 0 mm 4 mps 606 mmHg 47%
    19:00 +1°C° 0 mm 4 mps 606 mmHg 44%
    20:00 +1°C° 0 mm 4 mps 606 mmHg 42%
    21:00 +1°C° 0 mm 4 mps 606 mmHg 39%
    22:00 +1°C° 0 mm 4 mps 606 mmHg 39%
    23:00 +1°C° 0 mm 5 mps 606 mmHg 39%

    28 February, Friday

    Time Temperature Precipitation Wind Pressure Humidity
    00:00 +1°C° 0 mm 5 mps 605 mmHg 39%
    01:00 0°C° 0 mm 5 mps 605 mmHg 39%
    02:00 0°C° 0 mm 5 mps 604 mmHg 40%
    03:00 0°C° 0 mm 5 mps 603 mmHg 40%
    04:00 0°C° 0 mm 5 mps 603 mmHg 40%
    05:00 0°C° 0 mm 5 mps 602 mmHg 40%
    06:00 -1°C° 0 mm 5 mps 602 mmHg 40%
    07:00 +1°C° 0 mm 5 mps 602 mmHg 41%
    08:00 +2°C° 0 mm 5 mps 602 mmHg 42%
    09:00 +3°C° 0 mm 5 mps 602 mmHg 43%
    10:00 +5°C° 0 mm 5 mps 603 mmHg 42%
    11:00 +6°C° 0 mm 5 mps 603 mmHg 42%
    12:00 +8°C° 0 mm 4 mps 603 mmHg 41%
    13:00 +7°C° 0 mm 4 mps 603 mmHg 42%
    14:00 +7°C° 0 mm 4 mps 603 mmHg 43%
    15:00 +7°C° 0 mm 4 mps 603 mmHg 43%
    16:00 +5°C° 0 mm 5 mps 602 mmHg 46%
    17:00 +2°C° 0 mm 5 mps 602 mmHg 48%
    18:00 0°C° 0 mm 5 mps 602 mmHg 51%
    19:00 -1°C° 0 mm 5 mps 602 mmHg 55%
    20:00 -1°C° 0 mm 4 mps 602 mmHg 59%
    21:00 -2°C° 0 mm 4 mps 603 mmHg 63%
    22:00 -2°C° 0 mm 4 mps 603 mmHg 66%
    23:00 -1°C° 0 mm 3 mps 603 mmHg 69%

    29 February, Saturday

    Time Temperature Precipitation Wind Pressure Humidity
    00:00 -2°C° 0 mm 3 mps 603 mmHg 72%
    01:00 -2°C° 0.1 mm 3 mps 604 mmHg 77%
    02:00 -2°C° 0.1 mm 2 mps 604 mmHg 81%
    03:00 -2°C° 0.1 mm 2 mps 604 mmHg 86%
    04:00 -2°C° 0.4 mm 2 mps 605 mmHg 89%
    05:00 -2°C° 0.4 mm 2 mps 605 mmHg 92%
    06:00 -2°C° 0.4 mm 2 mps 606 mmHg 94%
    07:00 -2°C° 1.1 mm 2 mps 606 mmHg 94%
    08:00 -3°C° 1.1 mm 2 mps 606 mmHg 94%
    09:00 -4°C° 1.1 mm 3 mps 606 mmHg 93%
    10:00 -4°C° 0.6 mm 3 mps 606 mmHg 91%
    11:00 -4°C° 0.6 mm 3 mps 606 mmHg 88%
    12:00 -4°C° 0.6 mm 3 mps 606 mmHg 85%
    13:00 -4°C° 0.1 mm 3 mps 606 mmHg 83%
    14:00 -4°C° 0.1 mm 3 mps 605 mmHg 80%
    15:00 -2°C° 0.1 mm 3 mps 605 mmHg 78%
    16:00 -4°C° 0 mm 3 mps 605 mmHg 79%
    17:00 -5°C° 0 mm 4 mps 605 mmHg 80%
    18:00 -7°C° 0 mm 4 mps 604 mmHg 81%
    19:00 -8°C° 0 mm 4 mps 605 mmHg 79%
    20:00 -8°C° 0 mm 4 mps 605 mmHg 77%
    21:00 -8°C° 0 mm 4 mps 605 mmHg 76%
    22:00 -8°C° 0 mm 4 mps 605 mmHg 75%
    23:00 -8°C° 0 mm 4 mps 605 mmHg 75%
    Show more